PBO Station Position Time Series. Reference Frame : NAM14
Format Version,1.1.0
4-character ID,DWH1
Station name,DWH1
Begin Date, 2004-08-27
End Date, 2007-07-19
Release Date, 2021-02-19
Reference position, 47.7741036872 North Latitude, -122.0801566365 East Longitude, 109.05384 meters elevation,
Date, North (mm), East (mm), Vertical (mm), North Std. Deviation (mm), East Std. Deviation (mm),              Vertical Std. Deviation (mm), Quality,
2004-08-27,0.00, 0.00, 0.00, 2.63, 2.03, 9.68, repro,
2004-08-28,-1.23, -0.42, -0.07, 2.82, 2.15, 10.34, repro,
2004-08-29,-1.03, -1.37, -2.38, 2.67, 2.09, 9.94, repro,
2004-08-30,-1.66, -1.39, 3.24, 2.75, 2.11, 10.35, repro,
2004-08-31,-0.67, -0.93, -4.77, 2.66, 2.06, 9.70, repro,
2004-09-01,-3.46, -1.77, 1.18, 2.72, 2.11, 9.97, repro,
2004-09-02,-1.15, 1.70, 6.98, 2.76, 2.11, 10.05, repro,
2004-09-03,-2.56, -0.72, 5.01, 2.70, 2.04, 9.77, repro,
2004-09-04,-4.32, 0.93, 11.88, 2.66, 2.03, 9.56, repro,
2004-09-05,0.72, -2.40, -7.54, 2.67, 2.07, 9.80, repro,
2004-09-06,-0.18, -3.28, -11.22, 2.63, 2.02, 9.54, repro,
2004-09-07,-0.87, -0.39, -6.66, 2.62, 2.05, 9.64, repro,
2004-09-08,0.06, 0.25, 2.27, 2.71, 2.12, 10.00, repro,
2004-09-09,0.99, 0.18, 5.98, 2.74, 2.07, 9.83, repro,
2004-09-10,-1.87, -0.46, 0.18, 2.64, 2.06, 9.79, repro,
2004-09-11,-1.47, 1.22, -0.38, 2.65, 2.07, 9.74, repro,
2004-09-12,-1.67, -1.16, 9.55, 2.66, 2.11, 9.96, repro,
2004-09-13,-0.73, -1.33, 8.34, 2.78, 2.08, 9.92, repro,
2004-09-14,-1.14, 0.47, 23.95, 2.72, 2.12, 10.00, repro,
2004-09-15,-2.07, -0.24, 3.21, 2.71, 2.09, 9.80, repro,
2004-09-16,2.97, -0.14, 3.72, 2.61, 2.04, 9.56, repro,
2004-09-17,2.60, -3.50, -13.57, 2.78, 2.15, 10.12, repro,
2004-09-18,-0.28, -2.38, -0.66, 2.85, 2.26, 10.89, repro,
2004-09-19,3.29, -0.28, 11.92, 2.64, 2.05, 9.65, repro,
2004-09-20,1.91, -1.84, -1.16, 2.67, 2.04, 9.72, repro,
2004-09-21,1.48, -1.78, -7.06, 2.70, 2.07, 9.79, repro,
2004-09-22,1.75, -3.29, -7.67, 2.66, 2.07, 9.79, repro,
2004-09-23,1.47, -0.30, 5.64, 2.84, 2.16, 10.25, repro,
2004-09-24,3.32, -3.22, -6.86, 2.80, 2.16, 10.04, repro,
2004-09-25,4.40, -3.21, -17.78, 2.64, 2.05, 9.72, repro,
2004-09-26,0.69, -1.45, -5.04, 2.65, 2.06, 9.80, repro,
2004-09-27,2.94, -1.99, -3.95, 2.74, 2.12, 10.13, repro,
2004-09-28,2.44, -3.56, -3.68, 2.55, 1.99, 9.41, repro,
2004-09-29,1.98, -0.78, -1.64, 2.58, 2.03, 9.73, repro,
2004-09-30,6.78, -2.91, -6.37, 2.56, 2.01, 9.59, repro,
2004-10-01,3.43, -1.61, -6.65, 2.69, 2.05, 9.74, repro,
2004-10-02,3.03, -0.82, -1.42, 2.59, 2.02, 9.56, repro,
2004-10-03,2.65, -0.75, -5.11, 2.68, 2.11, 10.16, repro,
2004-10-04,3.47, 0.18, 0.84, 2.59, 2.05, 9.82, repro,
2004-10-05,3.14, -2.78, -7.26, 2.62, 2.05, 9.65, repro,
2004-10-06,4.89, 2.69, 16.05, 2.60, 2.02, 9.65, repro,
2004-10-07,4.69, -2.22, -1.87, 2.56, 1.98, 9.39, repro,
2004-10-08,2.83, -2.72, 0.56, 2.69, 2.11, 10.05, repro,
2004-10-09,0.77, -3.02, 4.88, 2.73, 2.14, 10.12, repro,
2004-10-10,4.49, -3.31, 0.34, 2.77, 2.14, 10.12, repro,
2004-10-11,4.83, -1.73, 4.18, 2.74, 2.10, 10.09, repro,
2004-10-12,3.74, -0.59, 2.78, 2.69, 2.09, 9.95, repro,
2004-10-13,4.21, -2.37, -5.84, 2.71, 2.10, 9.87, repro,
2004-10-14,5.02, -4.90, -13.48, 2.68, 2.10, 9.98, repro,
2004-10-15,5.36, -3.10, -7.73, 2.73, 2.07, 9.96, repro,
2004-10-16,6.16, -1.19, 7.57, 2.67, 2.07, 9.88, repro,
2004-10-17,7.24, -3.83, 16.76, 3.49, 2.90, 14.14, repro,
2004-10-18,6.18, -3.48, 13.97, 2.64, 2.02, 9.54, repro,
2004-10-19,7.44, -4.81, -1.70, 2.83, 2.16, 10.32, repro,
2004-10-20,6.36, -3.01, 7.60, 2.73, 2.09, 9.86, repro,
2004-10-21,4.17, -1.06, 7.04, 2.65, 2.04, 9.76, repro,
2004-10-22,5.61, -0.63, 26.61, 2.72, 2.12, 10.14, repro,
2004-10-23,4.56, -2.03, 13.73, 2.66, 2.11, 10.02, repro,
2004-10-24,7.04, -3.63, 3.12, 2.70, 2.15, 10.14, repro,
2004-10-25,7.11, -3.92, 0.84, 2.61, 2.07, 9.75, repro,
2004-10-26,4.54, -1.83, 11.58, 2.83, 2.17, 10.43, repro,
2004-10-27,4.95, -1.99, 6.75, 2.78, 2.15, 10.36, repro,
2004-10-28,8.06, -2.45, 10.03, 2.63, 2.05, 9.77, repro,
2004-10-29,5.99, -1.48, 10.63, 2.59, 2.06, 9.78, repro,
2004-10-30,5.96, -3.49, -5.43, 2.77, 2.19, 10.30, repro,
2004-10-31,7.73, -2.77, -0.68, 2.67, 2.04, 9.71, repro,
2004-11-01,6.04, -1.67, -6.75, 2.65, 2.10, 9.85, repro,
2004-11-02,7.14, -0.59, 3.60, 2.60, 2.10, 9.81, repro,
2004-11-03,7.34, -1.27, 5.52, 2.76, 2.19, 10.40, repro,
2004-11-04,3.61, -2.69, -3.14, 2.73, 2.12, 10.03, repro,
2004-11-05,7.46, -4.78, -10.32, 2.86, 2.31, 10.89, repro,
2004-11-06,6.11, -4.03, -14.39, 2.66, 2.10, 10.04, repro,
2004-11-07,7.04, -2.08, 4.04, 2.61, 2.07, 9.73, repro,
2004-11-08,7.14, 0.37, 13.17, 3.30, 2.46, 11.94, repro,
2004-11-09,5.45, -1.01, 3.56, 2.66, 2.07, 9.80, repro,
2004-11-10,9.14, -1.00, -10.28, 2.86, 2.09, 10.28, repro,
2004-11-11,8.67, -1.59, -6.00, 2.66, 2.09, 9.78, repro,
2004-11-12,10.63, -2.43, -4.08, 2.73, 2.07, 9.87, repro,
2004-11-13,8.06, -1.85, -0.46, 2.63, 2.05, 9.56, repro,
2004-11-14,7.74, -6.02, -13.97, 3.21, 2.52, 12.43, repro,
2004-11-15,9.02, -1.61, 0.94, 2.79, 2.12, 9.94, repro,
2004-11-16,8.66, -2.35, -2.43, 2.57, 2.05, 9.62, repro,
2004-11-17,7.74, -1.14, -1.75, 2.66, 2.07, 9.74, repro,
2004-11-18,9.19, -0.92, 5.34, 2.82, 2.19, 10.45, repro,
2004-11-19,10.24, -2.33, -2.31, 2.61, 2.08, 9.74, repro,
2004-11-20,9.88, -2.15, -1.21, 2.64, 2.04, 9.52, repro,
2004-11-21,7.87, -2.15, -11.93, 2.58, 2.08, 9.76, repro,
2004-11-22,11.84, -5.16, -13.40, 2.55, 2.01, 9.44, repro,
2004-11-23,10.19, -2.44, 4.25, 2.77, 2.11, 10.05, repro,
2004-11-24,8.97, -3.35, -0.67, 3.37, 2.78, 13.18, repro,
2004-11-25,8.29, -3.93, 6.76, 2.78, 2.27, 10.57, repro,
2004-11-26,8.92, -1.77, 4.51, 2.69, 2.13, 10.17, repro,
2004-11-27,9.11, -4.50, -7.63, 2.60, 2.12, 9.94, repro,
2004-11-28,5.78, -3.63, -9.86, 2.59, 2.03, 9.52, repro,
2004-11-29,9.17, -5.32, -15.01, 2.55, 1.96, 9.33, repro,
2004-11-30,11.19, -2.81, -8.49, 3.05, 2.68, 12.31, repro,
2004-12-01,10.56, -3.64, -9.88, 2.77, 2.09, 9.96, repro,
2004-12-02,9.72, -3.26, -2.10, 2.61, 1.97, 9.39, repro,
2004-12-03,7.34, -3.79, 5.62, 2.56, 2.01, 9.44, repro,
2004-12-04,9.44, -4.61, -2.68, 2.52, 2.01, 9.42, repro,
2004-12-05,9.92, -3.32, 11.93, 2.58, 2.02, 9.61, repro,
2004-12-06,11.67, -5.34, 0.56, 2.71, 2.07, 9.71, repro,
2004-12-07,9.40, -3.57, 8.16, 2.79, 2.16, 10.19, repro,
2004-12-08,10.31, -6.11, 0.99, 2.54, 2.02, 9.35, repro,
2004-12-09,13.38, -4.24, -3.13, 2.57, 2.03, 9.50, repro,
2004-12-10,11.80, -1.76, 3.60, 2.74, 2.12, 10.02, repro,
2004-12-11,9.89, -4.73, -14.29, 2.94, 2.29, 10.88, repro,
2004-12-12,11.09, -4.30, -16.19, 2.60, 1.98, 9.37, repro,
2004-12-13,10.90, -3.35, -4.95, 2.64, 2.02, 9.52, repro,
2004-12-14,8.81, -4.00, -6.07, 2.67, 2.10, 9.80, repro,
2004-12-15,10.19, -2.98, -9.75, 2.87, 2.20, 10.10, repro,
2004-12-16,10.03, -3.61, -13.83, 2.62, 1.97, 9.30, repro,
2004-12-17,10.35, -3.48, -16.13, 2.52, 1.95, 9.16, repro,
2004-12-18,9.07, -2.11, -9.01, 2.60, 2.01, 9.41, repro,
2004-12-19,11.40, -6.03, -23.95, 2.55, 2.01, 9.45, repro,
2004-12-20,11.54, -4.98, -10.35, 2.55, 1.97, 9.23, repro,
2004-12-21,10.14, -1.96, 7.91, 2.73, 2.06, 9.75, repro,
2004-12-22,10.88, -3.99, -8.76, 2.59, 2.01, 9.44, repro,
2004-12-23,10.87, -3.05, -6.79, 2.52, 1.96, 9.18, repro,
2004-12-24,9.54, -4.42, -11.55, 2.69, 2.14, 9.89, repro,
2004-12-25,10.28, -5.60, -8.84, 2.66, 2.07, 9.78, repro,
2004-12-26,9.94, -1.73, 10.52, 2.69, 2.04, 9.60, repro,
2004-12-27,10.06, -4.09, -14.22, 2.64, 1.98, 9.38, repro,
2004-12-28,10.94, -5.65, -6.45, 2.65, 1.98, 9.23, repro,
2004-12-29,12.80, -3.47, 5.42, 2.64, 2.04, 9.63, repro,
2004-12-30,14.11, -4.37, 0.24, 2.77, 2.15, 10.12, repro,
2004-12-31,10.48, -5.78, -2.35, 2.75, 2.03, 9.61, repro,
2005-01-01,12.13, -3.54, -2.74, 2.74, 2.05, 9.62, repro,
2005-01-02,13.18, -4.04, -5.35, 2.66, 1.95, 9.25, repro,
2005-01-03,11.94, -2.50, -1.41, 2.67, 1.98, 9.24, repro,
2005-01-04,13.61, -3.08, -6.09, 2.64, 1.96, 8.94, repro,
2005-01-05,10.08, -2.05, -12.94, 2.59, 1.93, 8.99, repro,
2005-01-06,12.94, -3.59, -7.80, 2.76, 2.06, 9.64, repro,
2005-01-07,13.41, -1.48, 8.46, 2.78, 2.06, 9.73, repro,
2005-01-08,9.79, -2.34, 1.51, 2.67, 2.05, 9.68, repro,
2005-01-09,11.67, -2.11, -1.40, 2.55, 1.94, 9.00, repro,
2005-01-10,10.23, -3.99, -16.61, 3.03, 2.31, 10.52, repro,
2005-01-11,13.34, -5.64, -14.99, 2.70, 2.11, 9.49, repro,
2005-01-12,15.00, -1.04, -9.08, 2.70, 2.03, 9.54, repro,
2005-01-13,10.82, -3.07, -9.60, 2.61, 2.00, 9.27, repro,
2005-01-14,12.22, -5.09, -26.67, 2.63, 2.03, 9.38, repro,
2005-01-15,10.57, -3.82, -24.41, 2.71, 2.10, 9.50, repro,
2005-01-16,14.07, -4.32, -31.07, 2.70, 2.13, 9.74, repro,
2005-01-17,13.69, 0.17, -5.14, 2.73, 2.12, 9.72, repro,
2005-01-18,11.48, -1.37, -12.08, 3.18, 2.30, 10.65, repro,
2005-01-19,14.54, -3.34, -17.93, 2.90, 2.19, 10.24, repro,
2005-01-20,10.24, -1.03, -8.02, 3.08, 2.54, 11.96, repro,
2005-01-21,12.23, -2.08, -6.40, 2.59, 2.07, 9.74, repro,
2005-01-22,12.70, -1.69, 0.80, 2.67, 2.03, 9.39, repro,
2005-01-23,13.68, -3.98, -7.08, 2.59, 2.01, 9.30, repro,
2005-01-24,10.45, -2.67, -6.56, 2.59, 2.00, 9.36, repro,
2005-01-25,13.31, -3.66, -12.65, 2.69, 2.14, 9.98, repro,
2005-01-26,14.74, -3.86, -9.49, 2.57, 1.99, 9.31, repro,
2005-01-27,14.00, -5.24, -7.00, 2.57, 2.00, 9.32, repro,
2005-01-28,12.15, -4.13, -10.32, 2.62, 2.09, 9.58, repro,
2005-01-29,13.55, -2.91, -2.05, 2.61, 2.00, 9.38, repro,
2005-01-30,15.69, -4.54, -11.76, 2.51, 1.97, 9.14, repro,
2005-01-31,12.19, -3.54, -13.85, 2.50, 1.96, 9.09, repro,
2005-02-01,13.21, -4.00, -16.36, 2.49, 1.93, 9.03, repro,
2005-02-02,13.71, -5.08, -11.43, 2.50, 1.92, 8.91, repro,
2005-02-03,87.64, -171.87, -623.77, 15.03, 41.19, 91.10, repro,
2005-02-04,12.66, -3.70, -11.84, 2.53, 2.01, 9.37, repro,
2005-02-05,13.20, -6.02, -3.02, 2.47, 1.95, 9.00, repro,
2005-02-06,14.96, -3.10, -5.17, 2.51, 1.99, 9.35, repro,
2005-02-07,14.04, -5.56, -14.44, 2.55, 2.00, 9.32, repro,
2005-02-08,13.98, -3.57, -16.25, 2.59, 1.98, 9.24, repro,
2005-02-09,14.83, -3.48, -7.70, 2.64, 1.99, 9.30, repro,
2005-02-10,10.88, -5.51, -18.60, 2.46, 1.90, 8.78, repro,
2005-02-11,13.06, -5.21, -13.58, 2.54, 1.96, 9.15, repro,
2005-02-12,12.29, -5.33, -6.02, 2.64, 2.00, 9.34, repro,
2005-02-13,14.68, -5.04, -5.45, 2.61, 2.02, 9.37, repro,
2005-02-14,14.50, -3.74, 1.85, 2.65, 2.03, 9.53, repro,
2005-02-15,11.76, -5.11, -12.09, 3.06, 2.20, 10.27, repro,
2005-02-16,13.35, -4.91, -17.36, 2.50, 1.96, 9.09, repro,
2005-02-17,13.57, -4.13, -14.62, 2.69, 2.02, 9.46, repro,
2005-02-18,12.10, -3.67, -11.83, 2.64, 1.97, 9.34, repro,
2005-02-19,13.46, -4.74, -3.70, 2.51, 1.90, 8.95, repro,
2005-02-20,11.72, -4.34, -2.76, 2.97, 2.51, 11.33, repro,
2005-02-21,10.56, -4.83, -13.27, 2.59, 1.94, 9.22, repro,
2005-02-22,11.44, -2.79, -6.25, 2.63, 1.99, 9.31, repro,
2005-02-23,12.37, -5.19, -6.73, 2.75, 2.06, 9.78, repro,
2005-02-24,13.05, -4.17, -15.98, 2.65, 1.93, 9.14, repro,
2005-02-25,12.70, -3.43, -8.38, 2.63, 1.95, 9.16, repro,
2005-02-26,10.59, -3.99, -10.90, 2.63, 1.99, 9.34, repro,
2005-02-27,10.86, -5.75, -11.31, 2.64, 1.97, 9.34, repro,
2005-02-28,9.40, -3.84, -4.05, 2.69, 2.04, 9.73, repro,
2005-03-01,12.09, -4.36, -15.56, 2.57, 2.00, 9.35, repro,
2005-03-02,10.87, -4.02, -12.44, 2.64, 1.97, 9.26, repro,
2005-03-03,11.54, -3.05, -16.49, 2.60, 1.99, 9.27, repro,
2005-03-04,7.26, -4.20, -21.44, 2.71, 2.02, 9.40, repro,
2005-03-05,9.59, -4.21, -16.84, 2.69, 2.02, 9.42, repro,
2005-03-06,11.33, -2.99, -10.32, 2.57, 1.94, 9.15, repro,
2005-03-07,13.37, -5.44, -18.13, 2.64, 2.06, 9.58, repro,
2005-03-08,13.73, -2.31, -13.01, 3.15, 2.53, 11.72, repro,
2005-03-09,10.59, -3.40, -17.17, 2.76, 2.06, 9.51, repro,
2005-03-10,9.81, -2.78, -17.63, 2.67, 2.03, 9.54, repro,
2005-03-11,9.89, -3.27, -11.80, 2.60, 1.99, 9.40, repro,
2005-03-12,11.34, -2.35, -10.80, 2.55, 1.91, 8.81, repro,
2005-03-13,9.64, -5.34, -28.24, 2.60, 2.00, 9.21, repro,
2005-03-14,9.00, -3.21, -12.83, 2.70, 2.06, 9.51, repro,
2005-03-15,5.39, -4.01, -13.53, 2.73, 2.05, 9.57, repro,
2005-03-16,6.29, -5.55, -11.73, 3.13, 2.58, 11.90, repro,
2005-03-17,10.15, -1.89, 6.81, 2.62, 1.99, 9.35, repro,
2005-03-18,7.81, -2.84, -7.83, 2.66, 2.01, 9.32, repro,
2005-03-19,10.52, -4.22, -3.84, 2.75, 2.10, 9.79, repro,
2005-03-20,10.20, -4.55, -7.09, 2.71, 2.11, 9.78, repro,
2005-03-21,9.68, -4.19, -4.34, 3.29, 2.31, 11.03, repro,
2005-03-22,10.53, -4.05, -18.09, 3.14, 2.19, 10.30, repro,
2005-03-23,7.78, -2.96, -8.02, 2.53, 1.94, 9.02, repro,
2005-03-24,6.31, -3.36, -9.01, 3.13, 2.23, 10.46, repro,
2005-03-25,6.49, -2.30, -12.20, 3.25, 2.61, 12.35, repro,
2005-03-26,2.57, -2.84, 3.83, 3.14, 2.40, 11.44, repro,
2005-03-27,5.99, -0.13, 14.36, 2.77, 2.15, 10.29, repro,
2005-03-28,5.37, -2.92, 2.18, 2.78, 2.05, 9.67, repro,
2005-03-29,7.27, -1.02, 8.36, 2.79, 2.13, 10.13, repro,
2005-03-30,9.70, -4.42, 2.53, 2.69, 2.09, 9.91, repro,
2005-03-31,6.70, -4.75, -11.05, 2.65, 2.03, 9.57, repro,
2005-04-01,9.18, -3.68, -2.55, 2.73, 2.11, 10.06, repro,
2005-04-02,5.93, -2.09, -6.31, 2.75, 2.10, 10.05, repro,
2005-04-03,6.54, -2.15, 3.70, 2.82, 2.18, 10.66, repro,
2005-04-04,7.86, -2.52, 6.61, 2.85, 2.14, 10.36, repro,
2005-04-05,5.12, -2.59, -12.33, 2.77, 2.09, 10.02, repro,
2005-04-06,6.38, -0.99, -3.64, 2.64, 1.97, 9.34, repro,
2005-04-07,7.73, -2.86, -1.93, 2.79, 2.08, 9.85, repro,
2005-04-08,5.88, -1.78, 7.93, 2.67, 2.03, 9.63, repro,
2005-04-09,5.22, -3.58, 3.00, 2.71, 2.00, 9.48, repro,
2005-04-10,6.25, -2.38, -6.05, 2.87, 2.21, 10.57, repro,
2005-04-11,6.29, -3.48, 2.70, 2.71, 2.09, 9.88, repro,
2005-04-12,5.59, -1.71, -0.95, 2.73, 2.03, 9.52, repro,
2005-04-13,7.73, -2.96, -10.27, 2.65, 1.95, 9.23, repro,
2005-04-14,5.36, -3.45, -4.76, 2.89, 2.11, 10.12, repro,
2005-04-15,3.96, -1.13, -12.61, 2.82, 2.11, 9.84, repro,
2005-04-16,5.25, -1.66, -4.48, 2.69, 2.05, 9.65, repro,
2005-04-17,2.92, -2.40, -3.94, 2.70, 1.98, 9.36, repro,
2005-04-18,3.18, -1.83, -5.55, 3.06, 2.21, 10.03, repro,
2005-04-19,5.56, -4.16, -15.88, 2.70, 1.94, 9.18, repro,
2005-04-20,3.10, -5.16, -18.58, 2.71, 1.96, 9.39, repro,
2005-04-21,1.96, -1.94, -6.35, 2.68, 2.04, 9.46, repro,
2005-04-22,2.91, -2.53, -23.76, 2.74, 2.06, 9.54, repro,
2005-04-23,1.24, -2.10, -9.17, 2.62, 1.94, 8.94, repro,
2005-04-24,4.99, 0.60, 5.42, 2.75, 2.06, 9.76, repro,
2005-04-25,2.75, -3.07, -10.47, 2.66, 1.97, 9.22, repro,
2005-04-26,1.56, -1.59, -3.59, 2.72, 2.03, 9.61, repro,
2005-04-27,1.94, -1.29, -12.56, 2.71, 2.04, 9.54, repro,
2005-04-28,-1.04, -1.82, -14.38, 2.74, 2.06, 9.39, repro,
2005-04-29,-0.37, -2.01, -4.30, 2.67, 1.96, 9.17, repro,
2005-04-30,5.18, -1.61, -11.05, 2.67, 2.00, 9.44, repro,
2005-05-08,2.69, -2.55, -10.47, 2.68, 2.00, 9.37, repro,
2005-05-09,0.77, -0.70, 2.19, 2.67, 2.02, 9.52, repro,
2005-05-10,2.96, -2.63, -11.35, 2.69, 2.09, 9.71, repro,
2005-05-11,2.89, -2.54, -12.23, 2.80, 2.07, 9.75, repro,
2005-05-12,2.90, -1.58, -12.48, 2.67, 2.04, 9.59, repro,
2005-05-13,3.78, -3.88, -25.53, 2.77, 2.07, 9.84, repro,
2005-05-14,2.18, -1.40, -7.99, 2.66, 2.04, 9.51, repro,
2005-05-15,5.98, -1.79, -1.51, 3.09, 2.31, 11.26, repro,
2005-05-16,1.14, -1.84, 9.24, 2.73, 2.15, 10.04, repro,
2005-05-17,1.58, -3.51, -2.06, 3.27, 2.59, 11.71, repro,
2005-05-18,4.00, 0.19, 1.88, 2.70, 2.03, 9.51, repro,
2005-05-19,4.14, 0.43, 7.63, 2.68, 2.13, 9.99, repro,
2005-05-20,-0.86, -1.28, 7.18, 2.72, 2.13, 9.94, repro,
2005-05-21,0.48, -4.12, -15.60, 2.70, 2.06, 9.54, repro,
2005-05-22,1.25, -2.69, -7.87, 2.70, 2.08, 9.81, repro,
2005-05-23,1.08, -0.63, -8.28, 2.65, 2.04, 9.56, repro,
2005-05-24,1.09, -0.99, -19.48, 2.61, 2.02, 9.40, repro,
2005-05-25,0.98, 0.39, -21.61, 2.89, 2.35, 11.02, repro,
2005-05-26,-2.06, -2.81, -17.06, 2.79, 2.19, 9.99, repro,
2005-05-27,-1.34, 0.72, -4.84, 2.72, 2.16, 10.25, repro,
2005-05-28,-3.56, -0.49, -6.96, 2.65, 2.09, 9.72, repro,
2005-05-29,-5.13, 0.78, -5.86, 2.77, 2.29, 10.19, repro,
2005-05-30,-3.01, -0.92, -9.65, 2.63, 2.16, 10.23, repro,
2005-05-31,-2.07, -0.89, -3.25, 2.71, 2.15, 10.20, repro,
2005-06-01,1.13, -2.28, -1.08, 2.80, 2.21, 10.42, repro,
2005-06-02,-0.20, -3.59, -8.63, 2.66, 2.07, 9.70, repro,
2005-06-03,1.23, -0.36, -6.19, 2.64, 2.09, 9.63, repro,
2005-06-04,0.61, -0.18, -4.38, 2.70, 2.06, 9.71, repro,
2005-06-05,1.40, -2.14, -9.28, 2.67, 2.09, 9.68, repro,
2005-06-06,0.30, -1.35, -7.66, 2.67, 2.03, 9.56, repro,
2005-06-07,-0.40, -0.64, -3.15, 2.73, 2.11, 9.96, repro,
2005-06-08,1.48, -0.77, -5.35, 2.64, 2.01, 9.46, repro,
2005-06-09,1.34, -1.05, -17.79, 3.11, 2.46, 11.36, repro,
2005-06-10,-2.03, 1.50, 5.98, 2.62, 2.05, 9.61, repro,
2005-06-11,0.18, -1.24, -1.93, 2.65, 2.09, 9.70, repro,
2005-06-12,-0.71, -4.35, -14.11, 3.14, 2.51, 11.50, repro,
2005-06-13,2.83, -3.52, -22.73, 2.86, 2.16, 10.23, repro,
2005-06-14,-0.01, 1.03, 0.07, 2.75, 2.10, 9.90, repro,
2005-06-15,-0.51, 0.40, -8.94, 3.12, 2.51, 12.03, repro,
2005-06-16,-0.03, 0.46, -3.52, 2.76, 2.03, 9.66, repro,
2005-06-17,0.26, -1.15, -6.46, 2.78, 2.11, 10.02, repro,
2005-06-18,-2.65, -0.14, -11.36, 2.83, 2.15, 10.29, repro,
2005-06-19,-1.35, 0.46, -11.93, 2.70, 2.07, 9.73, repro,
2005-06-20,-0.95, 1.95, -7.63, 2.67, 2.02, 9.55, repro,
2005-06-21,-3.22, -0.17, -10.93, 2.64, 2.04, 9.43, repro,
2005-06-22,-1.39, -1.92, -9.46, 2.72, 2.21, 10.55, repro,
2005-06-23,0.09, 1.57, -12.15, 2.77, 2.14, 10.11, repro,
2005-06-24,-3.14, -0.49, -12.65, 2.86, 2.18, 10.69, repro,
2005-06-25,-3.03, 0.27, -14.90, 2.76, 2.14, 10.08, repro,
2005-06-26,2.79, 0.34, -7.54, 2.86, 2.16, 10.14, repro,
2005-06-27,1.15, -0.09, -2.90, 2.82, 2.23, 10.63, repro,
2005-06-28,-1.13, -1.05, -3.53, 3.30, 2.60, 11.60, repro,
2005-06-29,0.78, -0.08, -7.25, 2.72, 2.09, 9.97, repro,
2005-06-30,-0.49, 0.55, -10.33, 2.72, 2.10, 9.95, repro,
2005-07-01,-3.28, 1.28, 1.46, 2.65, 2.07, 9.73, repro,
2005-07-02,-0.17, -0.74, -8.00, 2.65, 2.10, 9.78, repro,
2005-07-03,-1.88, 0.68, -8.66, 2.64, 2.03, 9.48, repro,
2005-07-04,-0.51, -0.50, -8.34, 2.62, 2.03, 9.62, repro,
2005-07-05,-7.84, 0.07, -6.27, 2.68, 2.08, 9.83, repro,
2005-07-06,-3.35, -0.04, 2.12, 2.72, 2.12, 10.02, repro,
2005-07-07,-0.62, 0.68, -9.91, 2.60, 2.04, 9.46, repro,
2005-07-08,-3.27, 0.56, 5.50, 2.76, 2.19, 10.30, repro,
2005-07-09,-2.93, -0.45, -10.57, 2.63, 2.06, 9.65, repro,
2005-07-10,-3.18, 1.87, 0.82, 2.71, 2.08, 9.83, repro,
2005-07-11,0.12, 0.88, -5.28, 2.79, 2.12, 10.20, repro,
2005-07-12,-0.26, 1.81, -5.33, 2.63, 2.06, 9.64, repro,
2005-07-13,-0.49, 1.93, -2.04, 2.72, 2.09, 9.80, repro,
2005-07-14,-1.01, -0.91, -10.52, 2.72, 2.04, 9.61, repro,
2005-07-15,-2.45, 0.49, 5.62, 2.62, 1.99, 9.40, repro,
2005-07-16,-2.67, 2.61, -3.26, 2.73, 2.09, 9.97, repro,
2005-07-17,-2.30, 2.27, -1.60, 2.71, 2.07, 9.75, repro,
2005-07-18,0.55, 2.89, 1.33, 2.67, 2.02, 9.52, repro,
2005-07-19,0.41, 0.50, -9.00, 2.72, 2.14, 10.20, repro,
2005-07-20,-2.23, 1.25, -8.40, 2.65, 2.05, 9.70, repro,
2005-07-21,-4.97, 1.86, -11.39, 2.61, 2.01, 9.47, repro,
2005-07-22,-4.26, 0.16, -5.63, 2.70, 2.09, 9.83, repro,
2005-07-23,-3.68, 1.00, -5.09, 2.66, 2.07, 9.70, repro,
2005-07-24,-3.28, 1.11, -14.40, 2.71, 2.17, 10.31, repro,
2005-07-25,-2.18, 0.67, -6.40, 2.73, 2.18, 10.18, repro,
2005-07-26,-5.60, -1.71, -18.22, 3.16, 2.59, 11.97, repro,
2005-07-27,-9.57, 2.59, -9.62, 2.83, 2.26, 10.47, repro,
2005-07-28,-4.28, 2.75, 1.43, 2.87, 2.27, 10.78, repro,
2005-07-29,-3.72, 3.20, -2.82, 2.72, 2.09, 9.91, repro,
2005-07-30,-4.72, 1.88, -12.88, 2.62, 2.04, 9.70, repro,
2005-07-31,-6.70, 1.31, -9.15, 2.71, 2.12, 10.19, repro,
2005-08-01,-8.79, 0.20, -7.17, 2.66, 2.06, 9.80, repro,
2005-08-02,-7.01, 3.78, 0.90, 2.65, 2.08, 9.91, repro,
2005-08-03,-6.81, 2.46, -4.27, 2.69, 2.09, 9.95, repro,
2005-08-04,-4.48, 2.87, -6.00, 2.66, 2.07, 9.72, repro,
2005-08-05,-6.10, 2.10, -15.26, 2.69, 2.11, 10.04, repro,
2005-08-06,-5.21, 1.09, -10.54, 2.68, 1.98, 9.51, repro,
2005-08-07,-5.78, 3.43, -10.96, 2.76, 2.06, 9.89, repro,
2005-08-08,-5.19, 4.59, 4.15, 2.70, 2.06, 9.83, repro,
2005-08-09,-5.16, 1.76, -10.99, 2.75, 2.09, 9.90, repro,
2005-08-10,-5.22, 0.06, -10.92, 2.71, 2.04, 9.63, repro,
2005-08-11,-3.87, 0.97, -10.07, 2.76, 2.11, 10.04, repro,
2005-08-12,-2.79, 1.20, -2.50, 2.68, 2.03, 9.51, repro,
2005-08-13,-5.14, 1.38, -2.69, 2.84, 2.08, 9.99, repro,
2005-08-14,-4.41, 2.44, -2.92, 2.76, 2.07, 9.64, repro,
2005-08-15,-5.06, 1.88, 3.44, 2.66, 2.08, 9.75, repro,
2005-08-16,-3.75, 1.27, -10.03, 2.65, 2.09, 9.61, repro,
2005-08-17,-5.44, 0.79, -1.14, 2.61, 2.01, 9.38, repro,
2005-08-18,-2.89, 1.43, 0.03, 2.67, 2.06, 9.75, repro,
2005-08-19,-4.04, 1.72, -1.83, 3.11, 2.34, 10.86, repro,
2005-08-20,-3.27, -0.29, -4.42, 2.61, 1.97, 9.33, repro,
2005-08-21,-3.08, 0.31, -7.70, 2.61, 2.01, 9.36, repro,
2005-08-22,-2.53, -2.78, -13.33, 2.61, 2.03, 9.43, repro,
2005-08-23,-5.59, 2.46, 6.76, 2.60, 2.03, 9.47, repro,
2005-08-24,-3.46, 1.13, -6.61, 2.64, 2.01, 9.58, repro,
2005-08-25,-2.54, 0.07, -8.76, 2.67, 2.01, 9.53, repro,
2005-08-26,-3.10, -0.34, -6.06, 2.61, 1.99, 9.46, repro,
2005-08-27,-4.54, -1.16, -10.60, 2.63, 2.01, 9.48, repro,
2005-08-28,-1.09, 0.75, -0.40, 2.64, 2.05, 9.60, repro,
2005-08-29,-2.86, 1.33, 2.41, 2.69, 2.07, 9.81, repro,
2005-08-30,-3.08, -0.49, -3.82, 2.67, 2.05, 9.63, repro,
2005-08-31,-2.26, 1.56, 2.61, 2.65, 2.01, 9.50, repro,
2005-09-01,-1.50, 0.20, -7.69, 2.61, 1.99, 9.21, repro,
2005-09-02,-1.02, -1.00, -4.78, 2.65, 2.04, 9.47, repro,
2005-09-03,-2.78, 0.72, -11.27, 2.65, 1.98, 9.25, repro,
2005-09-04,-2.16, 0.29, -3.44, 2.65, 1.99, 9.32, repro,
2005-09-05,-1.90, 0.07, 1.10, 2.83, 2.16, 10.17, repro,
2005-09-06,-0.93, -0.31, -8.92, 2.74, 2.12, 9.91, repro,
2005-09-07,-2.75, -0.34, -13.00, 2.65, 1.99, 9.28, repro,
2005-09-08,-3.94, 0.92, -3.16, 2.75, 2.02, 9.43, repro,
2005-09-09,-4.45, -2.23, 7.40, 2.76, 2.03, 9.49, repro,
2005-09-10,0.62, -1.33, 6.03, 3.07, 2.24, 10.56, repro,
2005-09-11,-2.05, -2.00, -1.54, 2.92, 2.09, 9.83, repro,
2005-09-12,-0.29, -2.16, -6.82, 2.82, 2.10, 9.73, repro,
2005-09-13,-3.22, -0.87, 1.87, 2.75, 2.10, 9.74, repro,
2005-09-14,-2.32, -3.54, -6.95, 2.67, 2.05, 9.66, repro,
2005-09-15,-1.04, -2.61, -3.60, 2.72, 2.10, 9.96, repro,
2005-09-16,-1.33, -1.42, 0.69, 2.77, 2.07, 9.80, repro,
2005-09-17,-0.54, -3.61, -11.53, 2.62, 1.98, 9.34, repro,
2005-09-18,-0.95, -2.37, 1.85, 2.76, 2.03, 9.55, repro,
2005-09-19,-1.30, -1.12, -1.62, 3.12, 2.27, 10.75, repro,
2005-09-20,0.41, -1.70, -6.66, 2.69, 1.99, 9.47, repro,
2005-09-21,-1.18, -2.81, -4.69, 2.64, 2.00, 9.49, repro,
2005-09-22,-0.55, -1.56, -3.75, 2.79, 2.17, 10.03, repro,
2005-09-23,-1.55, -2.19, -9.13, 2.63, 1.99, 9.43, repro,
2005-09-24,-2.10, -1.19, -5.80, 3.05, 2.27, 11.05, repro,
2005-09-25,-1.57, -1.52, 0.99, 2.68, 2.06, 9.74, repro,
2005-09-26,0.74, -2.99, -3.91, 2.85, 2.16, 10.09, repro,
2005-09-27,0.63, -0.40, -0.58, 2.79, 2.04, 9.68, repro,
2005-09-28,-3.65, -1.12, 5.83, 2.70, 2.01, 9.48, repro,
2005-09-29,-2.17, -1.03, 14.93, 2.61, 2.03, 9.53, repro,
2005-09-30,0.26, -2.13, 10.36, 2.65, 2.11, 9.99, repro,
2005-10-01,0.19, -3.27, 6.66, 2.71, 2.16, 10.21, repro,
2005-10-02,1.65, -4.40, 4.84, 3.21, 2.58, 11.90, repro,
2005-10-03,2.38, -2.00, 6.71, 2.75, 2.11, 9.75, repro,
2005-10-04,0.21, -1.14, 2.00, 2.71, 2.06, 9.68, repro,
2005-10-05,2.10, -3.10, -8.72, 3.19, 2.75, 12.48, repro,
2005-10-06,2.80, -2.82, -7.91, 2.70, 2.07, 9.58, repro,
2005-10-07,4.59, -0.70, 9.06, 2.92, 2.18, 10.67, repro,
2005-10-08,1.10, -3.48, 5.28, 2.70, 2.08, 9.81, repro,
2005-10-09,1.45, -1.90, 3.18, 2.57, 1.97, 9.10, repro,
2005-10-10,-0.55, -2.55, 2.59, 2.64, 2.08, 9.53, repro,
2005-10-11,3.52, -2.89, -0.14, 2.83, 2.23, 10.40, repro,
2005-10-12,1.51, -1.94, -8.17, 2.73, 2.12, 9.89, repro,
2005-10-13,5.56, -4.22, -4.67, 3.07, 2.60, 12.31, repro,
2005-10-14,5.13, -2.27, 6.97, 2.68, 2.06, 9.63, repro,
2005-10-15,4.22, -0.56, 18.79, 2.71, 2.12, 9.99, repro,
2005-10-16,1.42, -2.26, 4.82, 3.24, 2.61, 12.00, repro,
2005-10-17,3.89, -0.81, 11.85, 2.83, 2.23, 10.50, repro,
2005-10-18,5.14, -3.09, 0.39, 2.67, 2.06, 9.60, repro,
2005-10-19,5.53, -1.74, 6.39, 2.86, 2.18, 10.52, repro,
2005-10-20,5.65, -2.49, -2.85, 3.08, 2.46, 11.36, repro,
2005-10-21,3.02, 2.31, 11.44, 2.67, 2.05, 9.78, repro,
2005-10-22,7.77, -1.39, 3.48, 2.70, 2.05, 9.72, repro,